Year,Month,Day,Hour,Minute,Value (Times are PST for temperature in C)
2018,09,19,00,00,11.60
2018,09,19,00,01,11.60
2018,09,19,00,02,11.70
2018,09,19,00,03,11.70
2018,09,19,00,04,11.70
2018,09,19,00,05,11.70
2018,09,19,00,06,11.80
2018,09,19,00,07,11.80
2018,09,19,00,08,11.80
2018,09,19,00,09,11.80
2018,09,19,00,10,11.90
2018,09,19,00,11,11.90
2018,09,19,00,12,11.90
2018,09,19,00,13,11.90
2018,09,19,00,14,12.00
2018,09,19,00,15,12.00
2018,09,19,00,16,12.00
2018,09,19,00,17,12.00
2018,09,19,00,18,12.00
2018,09,19,00,19,12.00
2018,09,19,00,20,12.00
2018,09,19,00,21,12.10
2018,09,19,00,22,12.10
2018,09,19,00,23,12.10
2018,09,19,00,24,12.10
2018,09,19,00,25,12.00
2018,09,19,00,26,12.00
2018,09,19,00,27,12.00
2018,09,19,00,28,12.00
2018,09,19,00,29,12.00
2018,09,19,00,30,12.00
2018,09,19,00,31,12.00
2018,09,19,00,32,12.00
2018,09,19,00,33,12.00
2018,09,19,00,34,12.00
2018,09,19,00,35,12.00
2018,09,19,00,36,12.00
2018,09,19,00,37,12.10
2018,09,19,00,38,12.00
2018,09,19,00,39,12.00
2018,09,19,00,40,12.00
2018,09,19,00,41,11.90
2018,09,19,00,42,11.90
2018,09,19,00,43,11.90
2018,09,19,00,44,11.80
2018,09,19,00,45,11.80
2018,09,19,00,46,11.80
2018,09,19,00,47,11.80
2018,09,19,00,48,11.80
2018,09,19,00,49,11.80
2018,09,19,00,50,11.80
2018,09,19,00,51,11.80
2018,09,19,00,52,11.70
2018,09,19,00,53,11.70
2018,09,19,00,54,11.70
2018,09,19,00,55,11.60
2018,09,19,00,56,11.60
2018,09,19,00,57,11.50
2018,09,19,00,58,11.50
2018,09,19,00,59,11.50
2018,09,19,01,00,11.50
2018,09,19,01,01,11.40
2018,09,19,01,02,11.40
2018,09,19,01,03,11.40
2018,09,19,01,04,11.40
2018,09,19,01,05,11.30
2018,09,19,01,06,11.30
2018,09,19,01,07,11.30
2018,09,19,01,08,11.30
2018,09,19,01,09,11.30
2018,09,19,01,10,11.20
2018,09,19,01,11,11.20
2018,09,19,01,12,11.20
2018,09,19,01,13,11.20
2018,09,19,01,14,11.20
2018,09,19,01,15,11.20
2018,09,19,01,16,11.20
2018,09,19,01,17,11.20
2018,09,19,01,18,11.20
2018,09,19,01,19,11.20
2018,09,19,01,20,11.20
2018,09,19,01,21,11.20
2018,09,19,01,22,11.20
2018,09,19,01,23,11.20
2018,09,19,01,24,11.20
2018,09,19,01,25,11.20
2018,09,19,01,26,11.20
2018,09,19,01,27,11.20
2018,09,19,01,28,11.20
2018,09,19,01,29,11.20
2018,09,19,01,30,11.20
2018,09,19,01,31,11.20
2018,09,19,01,32,11.20
2018,09,19,01,33,11.20
2018,09,19,01,34,11.20
2018,09,19,01,35,11.20
2018,09,19,01,36,11.20
2018,09,19,01,37,11.20
2018,09,19,01,38,11.20
2018,09,19,01,39,11.20
2018,09,19,01,40,11.20
2018,09,19,01,41,11.20
2018,09,19,01,42,11.20
2018,09,19,01,43,11.10
2018,09,19,01,44,11.10
2018,09,19,01,45,11.10
2018,09,19,01,46,11.10
2018,09,19,01,47,11.10
2018,09,19,01,48,11.10
2018,09,19,01,49,11.10
2018,09,19,01,50,11.10
2018,09,19,01,51,11.10
2018,09,19,01,52,11.10
2018,09,19,01,53,11.10
2018,09,19,01,54,11.10
2018,09,19,01,55,11.10
2018,09,19,01,56,11.10
2018,09,19,01,57,11.10
2018,09,19,01,58,11.10
2018,09,19,01,59,11.20
2018,09,19,02,00,11.20
2018,09,19,02,01,11.20
2018,09,19,02,02,11.20
2018,09,19,02,03,11.20
2018,09,19,02,04,11.30
2018,09,19,02,05,11.30
2018,09,19,02,06,11.30
2018,09,19,02,07,11.30
2018,09,19,02,08,11.30
2018,09,19,02,09,11.30
2018,09,19,02,10,11.30
2018,09,19,02,11,11.30
2018,09,19,02,12,11.30
2018,09,19,02,13,11.30
2018,09,19,02,14,11.30
2018,09,19,02,15,11.30
2018,09,19,02,16,11.30
2018,09,19,02,17,11.30
2018,09,19,02,18,11.30
2018,09,19,02,19,11.30
2018,09,19,02,20,11.30
2018,09,19,02,21,11.30
2018,09,19,02,22,11.30
2018,09,19,02,23,11.30
2018,09,19,02,24,11.30
2018,09,19,02,25,11.30
2018,09,19,02,26,11.30
2018,09,19,02,27,11.30
2018,09,19,02,28,11.30
2018,09,19,02,29,11.30
2018,09,19,02,30,11.30
2018,09,19,02,31,11.30
2018,09,19,02,32,11.30
2018,09,19,02,33,11.30
2018,09,19,02,34,11.30
2018,09,19,02,35,11.30
2018,09,19,02,36,11.30
2018,09,19,02,37,11.30
2018,09,19,02,38,11.30
2018,09,19,02,39,11.30
2018,09,19,02,40,11.30
2018,09,19,02,41,11.30
2018,09,19,02,42,11.30
2018,09,19,02,43,11.30
2018,09,19,02,44,11.30
2018,09,19,02,45,11.30
2018,09,19,02,46,11.30
2018,09,19,02,47,11.30
2018,09,19,02,48,11.30
2018,09,19,02,49,11.30
2018,09,19,02,50,11.30
2018,09,19,02,51,11.30
2018,09,19,02,52,11.30
2018,09,19,02,53,11.30
2018,09,19,02,54,11.30
2018,09,19,02,55,11.20
2018,09,19,02,56,11.20
2018,09,19,02,57,11.20
2018,09,19,02,58,11.20
2018,09,19,02,59,11.20
2018,09,19,03,00,11.20
2018,09,19,03,01,11.20
2018,09,19,03,02,11.20
2018,09,19,03,03,11.20
2018,09,19,03,04,11.20
2018,09,19,03,05,11.20
2018,09,19,03,06,11.20
2018,09,19,03,07,11.20
2018,09,19,03,08,11.20
2018,09,19,03,09,11.20
2018,09,19,03,10,11.20
2018,09,19,03,11,11.20
2018,09,19,03,12,11.20
2018,09,19,03,13,11.20
2018,09,19,03,14,11.20
2018,09,19,03,15,11.20
2018,09,19,03,16,11.10
2018,09,19,03,17,11.20
2018,09,19,03,18,11.20
2018,09,19,03,19,11.20
2018,09,19,03,20,11.20
2018,09,19,03,21,11.10
2018,09,19,03,22,11.10
2018,09,19,03,23,11.10
2018,09,19,03,24,11.10
2018,09,19,03,25,11.10
2018,09,19,03,26,11.10
2018,09,19,03,27,11.10
2018,09,19,03,28,11.10
2018,09,19,03,29,11.10
2018,09,19,03,30,11.10
2018,09,19,03,31,11.10
2018,09,19,03,32,11.10
2018,09,19,03,33,11.10
2018,09,19,03,34,11.10
2018,09,19,03,35,11.10
2018,09,19,03,36,11.10
2018,09,19,03,37,11.10
2018,09,19,03,38,11.10
2018,09,19,03,39,11.10
2018,09,19,03,40,11.10
2018,09,19,03,41,11.10
2018,09,19,03,42,11.10
2018,09,19,03,43,11.10
2018,09,19,03,44,11.10
2018,09,19,03,45,11.10
2018,09,19,03,46,11.10
2018,09,19,03,47,11.10
2018,09,19,03,48,11.10
2018,09,19,03,49,11.10
2018,09,19,03,50,11.10
2018,09,19,03,51,11.10
2018,09,19,03,52,11.10
2018,09,19,03,53,11.10
2018,09,19,03,54,11.10
2018,09,19,03,55,11.10
2018,09,19,03,56,11.10
2018,09,19,03,57,11.10
2018,09,19,03,58,11.10
2018,09,19,03,59,11.10
2018,09,19,04,00,11.10
2018,09,19,04,01,11.10
2018,09,19,04,02,11.10
2018,09,19,04,03,11.10
2018,09,19,04,04,11.10
2018,09,19,04,05,11.10
2018,09,19,04,06,11.10
2018,09,19,04,07,11.00
2018,09,19,04,08,11.00
2018,09,19,04,09,11.00
2018,09,19,04,10,11.00
2018,09,19,04,11,11.00
2018,09,19,04,12,11.00
2018,09,19,04,13,11.00
2018,09,19,04,14,11.00
2018,09,19,04,15,11.00
2018,09,19,04,16,11.00
2018,09,19,04,17,10.90
2018,09,19,04,18,10.90
2018,09,19,04,19,10.90
2018,09,19,04,20,10.90
2018,09,19,04,21,10.90
2018,09,19,04,22,10.90
2018,09,19,04,23,10.90
2018,09,19,04,24,10.90
2018,09,19,04,25,11.00
2018,09,19,04,26,11.00
2018,09,19,04,27,11.00
2018,09,19,04,28,11.00
2018,09,19,04,29,11.00
2018,09,19,04,30,11.00
2018,09,19,04,31,11.00
2018,09,19,04,32,11.00
2018,09,19,04,33,11.00
2018,09,19,04,34,11.00
2018,09,19,04,35,11.00
2018,09,19,04,36,11.00
2018,09,19,04,37,11.00
2018,09,19,04,38,11.00
2018,09,19,04,39,11.00
2018,09,19,04,40,11.00
2018,09,19,04,41,11.00
2018,09,19,04,42,10.90
2018,09,19,04,43,10.90
2018,09,19,04,44,10.90
2018,09,19,04,45,10.90
2018,09,19,04,46,10.90
2018,09,19,04,47,10.90
2018,09,19,04,48,10.90
2018,09,19,04,49,10.90
2018,09,19,04,50,10.90
2018,09,19,04,51,10.90
2018,09,19,04,52,10.90
2018,09,19,04,53,10.90
2018,09,19,04,54,10.90
2018,09,19,04,55,10.90
2018,09,19,04,56,10.90
2018,09,19,04,57,10.90
2018,09,19,04,58,10.90
2018,09,19,04,59,10.80
2018,09,19,05,00,10.80
2018,09,19,05,01,10.80
2018,09,19,05,02,10.80
2018,09,19,05,03,10.80
2018,09,19,05,04,10.80
2018,09,19,05,05,10.80
2018,09,19,05,06,10.80
2018,09,19,05,07,10.80
2018,09,19,05,08,10.80
2018,09,19,05,09,10.80
2018,09,19,05,10,10.80
2018,09,19,05,11,10.80
2018,09,19,05,12,10.80
2018,09,19,05,13,10.80
2018,09,19,05,14,10.80
2018,09,19,05,15,10.80
2018,09,19,05,16,10.80
2018,09,19,05,17,10.80
2018,09,19,05,18,10.80
2018,09,19,05,19,10.80
2018,09,19,05,20,10.80
2018,09,19,05,21,10.80
2018,09,19,05,22,10.80
2018,09,19,05,23,10.80
2018,09,19,05,24,10.80
2018,09,19,05,25,10.80
2018,09,19,05,26,10.80
2018,09,19,05,27,10.80
2018,09,19,05,28,10.80
2018,09,19,05,29,10.80
2018,09,19,05,30,10.80
2018,09,19,05,31,10.80
2018,09,19,05,32,10.80
2018,09,19,05,33,10.80
2018,09,19,05,34,10.80
2018,09,19,05,35,10.80
2018,09,19,05,36,10.80
2018,09,19,05,37,10.80
2018,09,19,05,38,10.80
2018,09,19,05,39,10.80
2018,09,19,05,40,10.80
2018,09,19,05,41,10.80
2018,09,19,05,42,10.80
2018,09,19,05,43,10.80
2018,09,19,05,44,10.80
2018,09,19,05,45,10.80
2018,09,19,05,46,10.80
2018,09,19,05,47,10.80
2018,09,19,05,48,10.80
2018,09,19,05,49,10.80
2018,09,19,05,50,10.80
2018,09,19,05,51,10.80
2018,09,19,05,52,10.70
2018,09,19,05,53,10.70
2018,09,19,05,54,10.70
2018,09,19,05,55,10.70
2018,09,19,05,56,10.70
2018,09,19,05,57,10.70
2018,09,19,05,58,10.70
2018,09,19,05,59,10.70
2018,09,19,06,00,10.70
2018,09,19,06,01,10.70
2018,09,19,06,02,10.70
2018,09,19,06,03,10.70
2018,09,19,06,04,10.70
2018,09,19,06,05,10.70
2018,09,19,06,06,10.60
2018,09,19,06,07,10.60
2018,09,19,06,08,10.50
2018,09,19,06,09,10.50
2018,09,19,06,10,10.40
2018,09,19,06,11,10.40
2018,09,19,06,12,10.40
2018,09,19,06,13,10.40
2018,09,19,06,14,10.40
2018,09,19,06,15,10.40
2018,09,19,06,16,10.40
2018,09,19,06,17,10.30
2018,09,19,06,18,10.30
2018,09,19,06,19,10.30
2018,09,19,06,20,10.30
2018,09,19,06,21,10.30
2018,09,19,06,22,10.30
2018,09,19,06,23,10.30
2018,09,19,06,24,10.30
2018,09,19,06,25,10.30
2018,09,19,06,26,10.30
2018,09,19,06,27,10.30
2018,09,19,06,28,10.30
2018,09,19,06,29,10.30
2018,09,19,06,30,10.30
2018,09,19,06,31,10.30
2018,09,19,06,32,10.30
2018,09,19,06,33,10.20
2018,09,19,06,34,10.20
2018,09,19,06,35,10.30
2018,09,19,06,36,10.30
2018,09,19,06,37,10.30
2018,09,19,06,38,10.30
2018,09,19,06,39,10.30
2018,09,19,06,40,10.30
2018,09,19,06,41,10.30
2018,09,19,06,42,10.30
2018,09,19,06,43,10.20
2018,09,19,06,44,10.20
2018,09,19,06,45,10.20
2018,09,19,06,46,10.20
2018,09,19,06,47,10.20
2018,09,19,06,48,10.20
2018,09,19,06,49,10.30
2018,09,19,06,50,10.30
2018,09,19,06,51,10.30
2018,09,19,06,52,10.30
2018,09,19,06,53,10.30
2018,09,19,06,54,10.30
2018,09,19,06,55,10.30
2018,09,19,06,56,10.30
2018,09,19,06,57,10.30
2018,09,19,06,58,10.30
2018,09,19,06,59,10.30
2018,09,19,07,00,10.30
2018,09,19,07,01,10.30
2018,09,19,07,02,10.30
2018,09,19,07,03,10.30
2018,09,19,07,04,10.30
2018,09,19,07,05,10.30
2018,09,19,07,06,10.20
2018,09,19,07,07,10.20
2018,09,19,07,08,10.20
2018,09,19,07,09,10.10
2018,09,19,07,10,10.10
2018,09,19,07,11,10.10
2018,09,19,07,12,10.10
2018,09,19,07,13,10.10
2018,09,19,07,14,10.10
2018,09,19,07,15,10.10
2018,09,19,07,16,10.10
2018,09,19,07,17,10.10
2018,09,19,07,18,10.10
2018,09,19,07,19,10.10
2018,09,19,07,20,10.10
2018,09,19,07,21,10.10
2018,09,19,07,22,10.10
2018,09,19,07,23,10.10
2018,09,19,07,24,10.10
2018,09,19,07,25,10.10
2018,09,19,07,26,10.10
2018,09,19,07,27,10.10
2018,09,19,07,28,10.10
2018,09,19,07,29,10.10
2018,09,19,07,30,10.10
2018,09,19,07,31,10.10
2018,09,19,07,32,10.10
2018,09,19,07,33,10.10
2018,09,19,07,34,10.10
2018,09,19,07,35,10.10
2018,09,19,07,36,10.00
2018,09,19,07,37,10.00
2018,09,19,07,38,10.00
2018,09,19,07,39,10.00
2018,09,19,07,40,10.00
2018,09,19,07,41,10.00
2018,09,19,07,42,10.00
2018,09,19,07,43,10.00
2018,09,19,07,44,10.00
2018,09,19,07,45,10.10
2018,09,19,07,46,10.10
2018,09,19,07,47,10.10
2018,09,19,07,48,10.10
2018,09,19,07,49,10.10
2018,09,19,07,50,10.10
2018,09,19,07,51,10.10
2018,09,19,07,52,10.10
2018,09,19,07,53,10.10
2018,09,19,07,54,10.10
2018,09,19,07,55,10.10
2018,09,19,07,56,10.10
2018,09,19,07,57,10.10
2018,09,19,07,58,10.10
2018,09,19,07,59,10.10
2018,09,19,08,00,10.10
2018,09,19,08,01,10.20
2018,09,19,08,02,10.20
2018,09,19,08,03,10.20
2018,09,19,08,04,10.20
2018,09,19,08,05,10.20
2018,09,19,08,06,10.20
2018,09,19,08,07,10.30
2018,09,19,08,08,10.30
2018,09,19,08,09,10.30
2018,09,19,08,10,10.30
2018,09,19,08,11,10.30
2018,09,19,08,12,10.30
2018,09,19,08,13,10.30
2018,09,19,08,14,10.30
2018,09,19,08,15,10.30
2018,09,19,08,16,10.30
2018,09,19,08,17,10.30
2018,09,19,08,18,10.30
2018,09,19,08,19,10.30
2018,09,19,08,20,10.30
2018,09,19,08,21,10.30
2018,09,19,08,22,10.30
2018,09,19,08,23,10.30
2018,09,19,08,24,10.30
2018,09,19,08,25,10.30
2018,09,19,08,26,10.30
2018,09,19,08,27,10.30
2018,09,19,08,28,10.30
2018,09,19,08,29,10.30
2018,09,19,08,30,10.40
2018,09,19,08,31,10.40
2018,09,19,08,32,10.40
2018,09,19,08,33,10.40
2018,09,19,08,34,10.40
2018,09,19,08,35,10.40
2018,09,19,08,36,10.40
2018,09,19,08,37,10.50
2018,09,19,08,38,10.40
2018,09,19,08,39,10.50
2018,09,19,08,40,10.50
2018,09,19,08,41,10.50
2018,09,19,08,42,10.50
2018,09,19,08,43,10.50
2018,09,19,08,44,10.50
2018,09,19,08,45,10.50
2018,09,19,08,46,10.50
2018,09,19,08,47,10.60
2018,09,19,08,48,10.60
2018,09,19,08,49,10.50
2018,09,19,08,50,10.60
2018,09,19,08,51,10.60
2018,09,19,08,52,10.60
2018,09,19,08,53,10.60
2018,09,19,08,54,10.60
2018,09,19,08,55,10.70
2018,09,19,08,56,10.70
2018,09,19,08,57,10.60
2018,09,19,08,58,10.60
2018,09,19,08,59,10.60
2018,09,19,09,00,10.60
2018,09,19,09,01,10.60
2018,09,19,09,02,10.60
2018,09,19,09,03,10.60
2018,09,19,09,04,10.60
2018,09,19,09,05,10.60
2018,09,19,09,06,10.60
2018,09,19,09,07,10.60
2018,09,19,09,08,10.60
2018,09,19,09,09,10.60
2018,09,19,09,10,10.60
2018,09,19,09,11,10.60
2018,09,19,09,12,10.60
2018,09,19,09,13,10.60
2018,09,19,09,14,10.60
2018,09,19,09,15,10.60
2018,09,19,09,16,10.60
2018,09,19,09,17,10.60
2018,09,19,09,18,10.60
2018,09,19,09,19,10.60
2018,09,19,09,20,10.60
2018,09,19,09,21,10.60
2018,09,19,09,22,10.60
2018,09,19,09,23,10.60
2018,09,19,09,24,10.60
2018,09,19,09,25,10.60
2018,09,19,09,26,10.60
2018,09,19,09,27,10.60
2018,09,19,09,28,10.60
2018,09,19,09,29,10.70
2018,09,19,09,30,10.70
2018,09,19,09,31,10.70
2018,09,19,09,32,10.70
2018,09,19,09,33,10.70
2018,09,19,09,34,10.70
2018,09,19,09,35,10.70
2018,09,19,09,36,10.60
2018,09,19,09,37,10.60
2018,09,19,09,38,10.70
2018,09,19,09,39,10.70
2018,09,19,09,40,10.70
2018,09,19,09,41,10.70
2018,09,19,09,42,10.70
2018,09,19,09,43,10.70
2018,09,19,09,44,10.70
2018,09,19,09,45,10.70
2018,09,19,09,46,10.70
2018,09,19,09,47,10.80
2018,09,19,09,48,10.80
2018,09,19,09,49,10.80
2018,09,19,09,50,10.80
2018,09,19,09,51,10.80
2018,09,19,09,52,10.80
2018,09,19,09,53,10.80
2018,09,19,09,54,10.80
2018,09,19,09,55,10.80
2018,09,19,09,56,10.80
2018,09,19,09,57,10.90
2018,09,19,09,58,10.90
2018,09,19,09,59,10.90
2018,09,19,10,00,10.90
2018,09,19,10,01,11.00
2018,09,19,10,02,11.10
2018,09,19,10,03,11.20
2018,09,19,10,04,11.20
2018,09,19,10,05,11.20
2018,09,19,10,06,11.30
2018,09,19,10,07,11.30
2018,09,19,10,08,11.30
2018,09,19,10,09,11.30
2018,09,19,10,10,11.40
2018,09,19,10,11,11.40
2018,09,19,10,12,11.40
2018,09,19,10,13,11.40
2018,09,19,10,14,11.40
2018,09,19,10,15,11.40
2018,09,19,10,16,11.40
2018,09,19,10,17,11.40
2018,09,19,10,18,11.40
2018,09,19,10,19,11.50
2018,09,19,10,20,11.50
2018,09,19,10,21,11.50
2018,09,19,10,22,11.50
2018,09,19,10,23,11.50
2018,09,19,10,24,11.50
2018,09,19,10,25,11.50
2018,09,19,10,26,11.50
2018,09,19,10,27,11.50
2018,09,19,10,28,11.60
2018,09,19,10,29,11.60
2018,09,19,10,30,11.60
2018,09,19,10,31,11.50
2018,09,19,10,32,11.50
2018,09,19,10,33,11.40
2018,09,19,10,34,11.40
2018,09,19,10,35,11.40
2018,09,19,10,36,11.40
2018,09,19,10,37,11.40
2018,09,19,10,38,11.50
2018,09,19,10,39,11.50
2018,09,19,10,40,11.60
2018,09,19,10,41,11.60
2018,09,19,10,42,11.60
2018,09,19,10,43,11.60
2018,09,19,10,44,11.60
2018,09,19,10,45,11.60
2018,09,19,10,46,11.60
2018,09,19,10,47,11.70
2018,09,19,10,48,11.70
2018,09,19,10,49,11.80
2018,09,19,10,50,11.80
2018,09,19,10,51,11.80
2018,09,19,10,52,11.70
2018,09,19,10,53,11.70
2018,09,19,10,54,11.70
2018,09,19,10,55,11.70
2018,09,19,10,56,11.60
2018,09,19,10,57,11.60
2018,09,19,10,58,11.60
2018,09,19,10,59,11.60
2018,09,19,11,00,11.70
2018,09,19,11,01,11.70
2018,09,19,11,02,11.70
2018,09,19,11,03,11.60
2018,09,19,11,04,11.70
2018,09,19,11,05,11.70
2018,09,19,11,06,11.70
2018,09,19,11,07,11.70
2018,09,19,11,08,11.70
2018,09,19,11,09,11.70
2018,09,19,11,10,11.80
2018,09,19,11,11,11.80
2018,09,19,11,12,11.80
2018,09,19,11,13,11.80
2018,09,19,11,14,11.90
2018,09,19,11,15,11.90
2018,09,19,11,16,12.00
2018,09,19,11,17,12.00
2018,09,19,11,18,12.00
2018,09,19,11,19,11.90
2018,09,19,11,20,12.00
2018,09,19,11,21,12.00
2018,09,19,11,22,11.90
2018,09,19,11,23,11.90
2018,09,19,11,24,11.90
2018,09,19,11,25,11.90
2018,09,19,11,26,11.90
2018,09,19,11,27,11.90
2018,09,19,11,28,12.00
2018,09,19,11,29,12.00
2018,09,19,11,30,12.10
2018,09,19,11,31,12.10
2018,09,19,11,32,12.10
2018,09,19,11,33,12.20
2018,09,19,11,34,12.20
2018,09,19,11,35,12.20
2018,09,19,11,36,12.20
2018,09,19,11,37,12.30
2018,09,19,11,38,12.30
2018,09,19,11,39,12.30
2018,09,19,11,40,12.30
2018,09,19,11,41,12.30
2018,09,19,11,42,12.30
2018,09,19,11,43,12.30
2018,09,19,11,44,12.30
2018,09,19,11,45,12.30
2018,09,19,11,46,12.20
2018,09,19,11,47,12.20
2018,09,19,11,48,12.20
2018,09,19,11,49,12.10
2018,09,19,11,50,12.10
2018,09,19,11,51,12.00
2018,09,19,11,52,12.00
2018,09,19,11,53,11.90
2018,09,19,11,54,11.90
2018,09,19,11,55,11.90
2018,09,19,11,56,11.90
2018,09,19,11,57,12.00
2018,09,19,11,58,12.00
2018,09,19,11,59,12.00
2018,09,19,12,00,12.00
2018,09,19,12,01,12.00
2018,09,19,12,02,12.10
2018,09,19,12,03,12.10
2018,09,19,12,04,12.10
2018,09,19,12,05,12.10
2018,09,19,12,06,12.10
2018,09,19,12,07,12.10
2018,09,19,12,08,12.10
2018,09,19,12,09,12.10
2018,09,19,12,10,12.10
2018,09,19,12,11,12.10
2018,09,19,12,12,12.20
2018,09,19,12,13,12.20
2018,09,19,12,14,12.20
2018,09,19,12,15,12.20
2018,09,19,12,16,12.30
2018,09,19,12,17,12.30
2018,09,19,12,18,12.30
2018,09,19,12,19,12.30
2018,09,19,12,20,12.30
2018,09,19,12,21,12.40
2018,09,19,12,22,12.30
2018,09,19,12,23,12.40
2018,09,19,12,24,12.40
2018,09,19,12,25,12.30
2018,09,19,12,26,12.30
2018,09,19,12,27,12.30
2018,09,19,12,28,12.30
2018,09,19,12,29,12.30
2018,09,19,12,30,12.30
2018,09,19,12,31,12.20
2018,09,19,12,32,12.20
2018,09,19,12,33,12.20
2018,09,19,12,34,12.20
2018,09,19,12,35,12.20
2018,09,19,12,36,12.20
2018,09,19,12,37,12.20
2018,09,19,12,38,12.30
2018,09,19,12,39,12.30
2018,09,19,12,40,12.40
2018,09,19,12,41,12.30
2018,09,19,12,42,12.30
2018,09,19,12,43,12.30
2018,09,19,12,44,12.30
2018,09,19,12,45,12.30
2018,09,19,12,46,12.30
2018,09,19,12,47,12.30
2018,09,19,12,48,12.30
2018,09,19,12,49,12.30
2018,09,19,12,50,12.30
2018,09,19,12,51,12.30
2018,09,19,12,52,12.30
2018,09,19,12,53,12.30
2018,09,19,12,54,12.40
2018,09,19,12,55,12.40
2018,09,19,12,56,12.50
2018,09,19,12,57,12.50
2018,09,19,12,58,12.40
2018,09,19,12,59,12.40
2018,09,19,13,00,12.40
2018,09,19,13,01,12.40
2018,09,19,13,02,12.40
2018,09,19,13,03,12.50
2018,09,19,13,04,12.50
2018,09,19,13,05,12.50
2018,09,19,13,06,12.50
2018,09,19,13,07,12.50
2018,09,19,13,08,12.50
2018,09,19,13,09,12.50
2018,09,19,13,10,12.50
2018,09,19,13,11,12.50
2018,09,19,13,12,12.60
2018,09,19,13,13,12.60
2018,09,19,13,14,12.60
2018,09,19,13,15,12.60
2018,09,19,13,16,12.70
2018,09,19,13,17,12.60
2018,09,19,13,18,12.70
2018,09,19,13,19,12.70
2018,09,19,13,20,12.70
2018,09,19,13,21,12.70
2018,09,19,13,22,12.70
2018,09,19,13,23,12.80
2018,09,19,13,24,12.80
2018,09,19,13,25,12.80
2018,09,19,13,26,12.80
2018,09,19,13,27,12.70
2018,09,19,13,28,12.70
2018,09,19,13,29,12.70
2018,09,19,13,30,12.80
2018,09,19,13,31,12.80
2018,09,19,13,32,12.80
2018,09,19,13,33,12.70
2018,09,19,13,34,12.70
2018,09,19,13,35,12.80
2018,09,19,13,36,12.80
2018,09,19,13,37,12.90
2018,09,19,13,38,12.90
2018,09,19,13,39,12.90
2018,09,19,13,40,12.90
2018,09,19,13,41,12.90
2018,09,19,13,42,12.80
2018,09,19,13,43,12.80
2018,09,19,13,44,12.80
2018,09,19,13,45,12.80
2018,09,19,13,46,12.80
2018,09,19,13,47,12.80
2018,09,19,13,48,12.90
2018,09,19,13,49,12.90
2018,09,19,13,50,12.90
2018,09,19,13,51,12.90
2018,09,19,13,52,13.00
2018,09,19,13,53,13.10
2018,09,19,13,54,13.10
2018,09,19,13,55,13.20
2018,09,19,13,56,13.30
2018,09,19,13,57,13.30
2018,09,19,13,58,13.40
2018,09,19,13,59,13.30
2018,09,19,14,00,13.20
2018,09,19,14,01,13.10
2018,09,19,14,02,13.00
2018,09,19,14,03,13.00
2018,09,19,14,04,13.00
2018,09,19,14,05,13.10
2018,09,19,14,06,13.10
2018,09,19,14,07,13.20
2018,09,19,14,08,13.10
2018,09,19,14,09,13.10
2018,09,19,14,10,13.00
2018,09,19,14,11,12.90
2018,09,19,14,12,12.90
2018,09,19,14,13,12.80
2018,09,19,14,14,12.80
2018,09,19,14,15,12.80
2018,09,19,14,16,12.80
2018,09,19,14,17,12.80
2018,09,19,14,18,12.80
2018,09,19,14,19,12.80
2018,09,19,14,20,12.80
2018,09,19,14,21,12.80
2018,09,19,14,22,12.80
2018,09,19,14,23,12.80
2018,09,19,14,24,12.80
2018,09,19,14,25,12.80
2018,09,19,14,26,12.80
2018,09,19,14,27,12.80
2018,09,19,14,28,12.80
2018,09,19,14,29,12.70
2018,09,19,14,30,12.70
2018,09,19,14,31,12.70
2018,09,19,14,32,12.70
2018,09,19,14,33,12.70
2018,09,19,14,34,12.70
2018,09,19,14,35,12.70
2018,09,19,14,36,12.80
2018,09,19,14,37,12.80
2018,09,19,14,38,12.90
2018,09,19,14,39,12.90
2018,09,19,14,40,12.90
2018,09,19,14,41,12.90
2018,09,19,14,42,13.00
2018,09,19,14,43,13.00
2018,09,19,14,44,13.10
2018,09,19,14,45,13.10
2018,09,19,14,46,13.10
2018,09,19,14,47,13.20
2018,09,19,14,48,13.20
2018,09,19,14,49,13.10
2018,09,19,14,50,13.00
2018,09,19,14,51,12.90
2018,09,19,14,52,12.80
2018,09,19,14,53,12.70
2018,09,19,14,54,12.70
2018,09,19,14,55,12.70
2018,09,19,14,56,12.60
2018,09,19,14,57,12.60
2018,09,19,14,58,12.60
2018,09,19,14,59,12.70
2018,09,19,15,00,12.70
2018,09,19,15,01,12.80
2018,09,19,15,02,12.80
2018,09,19,15,03,12.90
2018,09,19,15,04,13.00
2018,09,19,15,05,13.00
2018,09,19,15,06,13.10
2018,09,19,15,07,13.10
2018,09,19,15,08,13.20
2018,09,19,15,09,13.20
2018,09,19,15,10,13.20
2018,09,19,15,11,13.20
2018,09,19,15,12,13.20
2018,09,19,15,13,13.30
2018,09,19,15,14,13.30
2018,09,19,15,15,13.30
2018,09,19,15,16,13.30
2018,09,19,15,17,13.30
2018,09,19,15,18,13.30
2018,09,19,15,19,13.40
2018,09,19,15,20,13.40
2018,09,19,15,21,13.40
2018,09,19,15,22,13.40
2018,09,19,15,23,13.50
2018,09,19,15,24,13.60
2018,09,19,15,25,13.70
2018,09,19,15,26,13.70
2018,09,19,15,27,13.70
2018,09,19,15,28,13.70
2018,09,19,15,29,13.80
2018,09,19,15,30,13.80
2018,09,19,15,31,13.80
2018,09,19,15,32,13.80
2018,09,19,15,33,13.80
2018,09,19,15,34,13.70
2018,09,19,15,35,13.80
2018,09,19,15,36,13.80
2018,09,19,15,37,13.90
2018,09,19,15,38,13.90
2018,09,19,15,39,13.90
2018,09,19,15,40,13.90
2018,09,19,15,41,13.80
2018,09,19,15,42,13.80
2018,09,19,15,43,13.80
2018,09,19,15,44,13.80
2018,09,19,15,45,13.90
2018,09,19,15,46,13.90
2018,09,19,15,47,14.00
2018,09,19,15,48,14.00
2018,09,19,15,49,14.10
2018,09,19,15,50,14.10
2018,09,19,15,51,14.20
2018,09,19,15,52,14.20
2018,09,19,15,53,14.20
2018,09,19,15,54,14.20
2018,09,19,15,55,14.20
2018,09,19,15,56,14.20
2018,09,19,15,57,14.30
2018,09,19,15,58,14.30
2018,09,19,15,59,14.30
2018,09,19,16,00,14.30
2018,09,19,16,01,14.30
2018,09,19,16,02,14.30
2018,09,19,16,03,14.40
2018,09,19,16,04,14.40
2018,09,19,16,05,14.50
2018,09,19,16,06,14.60
2018,09,19,16,07,14.60
2018,09,19,16,08,14.70
2018,09,19,16,09,14.70
2018,09,19,16,10,14.70
2018,09,19,16,11,14.70
2018,09,19,16,12,14.70
2018,09,19,16,13,14.70
2018,09,19,16,14,14.70
2018,09,19,16,15,14.70
2018,09,19,16,16,14.60
2018,09,19,16,17,14.60
2018,09,19,16,18,14.60
2018,09,19,16,19,14.50
2018,09,19,16,20,14.40
2018,09,19,16,21,14.40
2018,09,19,16,22,14.30
2018,09,19,16,23,14.20
2018,09,19,16,24,14.20
2018,09,19,16,25,14.20
2018,09,19,16,26,14.20
2018,09,19,16,27,14.20
2018,09,19,16,28,14.30
2018,09,19,16,29,14.30
2018,09,19,16,30,14.40
2018,09,19,16,31,14.40
2018,09,19,16,32,14.50
2018,09,19,16,33,14.60
2018,09,19,16,34,14.60
2018,09,19,16,35,14.70
2018,09,19,16,36,14.70
2018,09,19,16,37,14.70
2018,09,19,16,38,14.70
2018,09,19,16,39,14.70
2018,09,19,16,40,14.70
2018,09,19,16,41,14.70
2018,09,19,16,42,14.70
2018,09,19,16,43,14.70
2018,09,19,16,44,14.70
2018,09,19,16,45,14.70
2018,09,19,16,46,14.70
2018,09,19,16,47,14.80
2018,09,19,16,48,14.80
2018,09,19,16,49,14.80
2018,09,19,16,50,14.80
2018,09,19,16,51,14.80
2018,09,19,16,52,14.80
2018,09,19,16,53,14.80
2018,09,19,16,54,14.80
2018,09,19,16,55,14.80
2018,09,19,16,56,14.80
2018,09,19,16,57,14.80
2018,09,19,16,58,14.80
2018,09,19,16,59,14.80
2018,09,19,17,00,14.80
2018,09,19,17,01,14.90
2018,09,19,17,02,14.80
2018,09,19,17,03,14.80
2018,09,19,17,04,14.80
2018,09,19,17,05,14.80
2018,09,19,17,06,14.80
2018,09,19,17,07,14.80
2018,09,19,17,08,14.80
2018,09,19,17,09,14.70
2018,09,19,17,10,14.70
2018,09,19,17,11,14.60
2018,09,19,17,12,14.50
2018,09,19,17,13,14.40
2018,09,19,17,14,14.30
2018,09,19,17,15,14.20
2018,09,19,17,16,14.20
2018,09,19,17,17,14.20
2018,09,19,17,18,14.20
2018,09,19,17,19,14.30